LVKFQ KFLL-MYEN

Flight info

Callsign LVKFQ
Flight time 0h 45m
Altitude 33000
Route SNAPR2 SUMAC DCT LEPAS
Aircraft CL60/M-SBDE1E2E3FGHIJ4J5J7M3RWXYZ/LB1V1D1

Departure

Time 2026-04-19 23:05
Airport Fort Lauderdale Hollywood International Airport (KFLL)

Arrival

Time 2026-04-19 23:51
Airport Normans Cay Airport (MYEN)
Time Latitude Longitude Altitude Speed Heading
2026-04-19 22:42 26.06796 -80.15942 9 ft 0 kts 14°
2026-04-19 23:02 26.06804 -80.15938 9 ft 3 kts 46°
2026-04-19 23:02 26.06809 -80.15910 9 ft 6 kts 80°
2026-04-19 23:02 26.06815 -80.15845 9 ft 10 kts 88°
2026-04-19 23:02 26.06813 -80.15826 9 ft 2 kts 126°
2026-04-19 23:03 26.06784 -80.15814 9 ft 6 kts 147°
2026-04-19 23:03 26.06746 -80.15774 9 ft 9 kts 171°
2026-04-19 23:03 26.06685 -80.15810 9 ft 12 kts 211°
2026-04-19 23:03 26.06592 -80.15821 9 ft 15 kts 157°
2026-04-19 23:04 26.06575 -80.15794 9 ft 3 kts 48°
2026-04-19 23:04 26.06590 -80.15756 9 ft 7 kts 91°
2026-04-19 23:04 26.06589 -80.15744 9 ft 0 kts 94°
2026-04-19 23:05 26.06588 -80.15726 9 ft 15 kts 94°
2026-04-19 23:05 26.06585 -80.15266 9 ft 108 kts 91°
2026-04-19 23:05 26.06578 -80.14131 154 ft 178 kts 90°
2026-04-19 23:05 26.06590 -80.12678 983 ft 198 kts 89°
2026-04-19 23:06 26.06595 -80.11126 2060 ft 212 kts 90°
2026-04-19 23:06 26.06596 -80.09430 3086 ft 236 kts 89°
2026-04-19 23:06 26.06591 -80.07554 4065 ft 248 kts 89°
2026-04-19 23:06 26.06586 -80.05674 5073 ft 247 kts 89°
2026-04-19 23:07 26.06570 -80.03760 6314 ft 253 kts 90°
2026-04-19 23:07 26.06535 -80.01809 7543 ft 262 kts 91°
2026-04-19 23:07 26.06180 -79.99826 8786 ft 270 kts 107°
2026-04-19 23:07 26.05607 -79.97852 10071 ft 276 kts 107°
2026-04-19 23:08 26.05023 -79.95820 11355 ft 280 kts 107°
2026-04-19 23:08 26.04435 -79.93764 12625 ft 283 kts 107°
2026-04-19 23:08 26.03849 -79.91706 13874 ft 284 kts 108°
2026-04-19 23:08 26.03265 -79.89654 15081 ft 284 kts 108°
2026-04-19 23:09 26.02674 -79.87576 16259 ft 284 kts 108°
2026-04-19 23:09 26.02088 -79.85511 17381 ft 283 kts 108°
2026-04-19 23:09 26.01504 -79.83447 18464 ft 282 kts 108°
2026-04-19 23:09 26.00918 -79.81379 19517 ft 281 kts 108°
2026-04-19 23:10 26.00307 -79.79224 19894 ft 307 kts 108°
2026-04-19 23:10 25.99632 -79.76842 20194 ft 334 kts 108°
2026-04-19 23:10 25.98927 -79.74349 20890 ft 344 kts 108°
2026-04-19 23:10 25.98209 -79.71809 21671 ft 351 kts 108°
2026-04-19 23:11 25.97471 -79.69199 22450 ft 357 kts 107°
2026-04-19 23:11 25.96720 -79.66544 23263 ft 361 kts 107°
2026-04-19 23:11 25.95957 -79.63847 24012 ft 368 kts 108°
2026-04-19 23:11 25.95178 -79.61092 24767 ft 373 kts 107°
2026-04-19 23:12 25.94399 -79.58342 25521 ft 377 kts 107°
2026-04-19 23:12 25.93605 -79.55537 26202 ft 383 kts 107°
2026-04-19 23:12 25.92808 -79.52725 26905 ft 387 kts 107°
2026-04-19 23:12 25.91983 -79.49817 27554 ft 393 kts 107°
2026-04-19 23:13 25.91158 -79.46910 28195 ft 398 kts 107°
2026-04-19 23:13 25.90322 -79.43965 28810 ft 402 kts 106°
2026-04-19 23:13 25.89479 -79.40997 29436 ft 407 kts 106°
2026-04-19 23:13 25.88619 -79.37972 30020 ft 412 kts 107°
2026-04-19 23:14 25.87749 -79.34914 30656 ft 415 kts 107°
2026-04-19 23:14 25.86884 -79.31877 31186 ft 419 kts 107°
2026-04-19 23:14 25.85994 -79.28756 31674 ft 424 kts 107°
2026-04-19 23:14 25.85093 -79.25599 32164 ft 429 kts 107°
2026-04-19 23:15 25.84188 -79.22428 32689 ft 431 kts 106°
2026-04-19 23:15 25.83282 -79.19257 33029 ft 438 kts 107°
2026-04-19 23:15 25.81389 -79.12643 33074 ft 461 kts 106°
2026-04-19 23:16 25.80400 -79.09190 33069 ft 475 kts 106°
2026-04-19 23:16 25.79378 -79.05628 33068 ft 487 kts 106°
2026-04-19 23:16 25.78346 -79.02034 33066 ft 499 kts 106°
2026-04-19 23:16 25.77273 -78.98302 33066 ft 509 kts 106°
2026-04-19 23:17 25.75094 -78.90739 33067 ft 521 kts 107°
2026-04-19 23:17 25.72876 -78.83063 33070 ft 522 kts 106°
2026-04-19 23:18 25.70661 -78.75409 33073 ft 522 kts 106°
2026-04-19 23:18 25.68441 -78.67753 33071 ft 521 kts 106°
2026-04-19 23:19 25.66207 -78.60066 33074 ft 520 kts 106°
2026-04-19 23:19 25.63990 -78.52451 33064 ft 520 kts 106°
2026-04-19 23:20 25.61772 -78.44848 33069 ft 520 kts 106°
2026-04-19 23:20 25.59530 -78.37180 33076 ft 520 kts 106°
2026-04-19 23:21 25.57304 -78.29584 33070 ft 520 kts 107°
2026-04-19 23:21 25.55048 -78.21935 33081 ft 520 kts 107°
2026-04-19 23:22 25.52780 -78.14300 33078 ft 520 kts 107°
2026-04-19 23:22 25.50515 -78.06723 33076 ft 520 kts 106°
2026-04-19 23:23 25.48206 -77.99048 33075 ft 531 kts 107°
2026-04-19 23:23 25.45837 -77.91217 33052 ft 540 kts 107°
2026-04-19 23:24 25.43429 -77.83310 33059 ft 544 kts 107°
2026-04-19 23:24 25.40993 -77.75371 33076 ft 544 kts 107°
2026-04-19 23:25 25.38551 -77.67473 33082 ft 544 kts 107°
2026-04-19 23:25 25.36079 -77.59537 33084 ft 544 kts 107°
2026-04-19 23:26 25.33602 -77.51646 33080 ft 544 kts 107°
2026-04-19 23:26 25.31113 -77.43773 33125 ft 544 kts 107°
2026-04-19 23:27 25.29876 -77.39889 33114 ft 530 kts 107°
2026-04-19 23:27 25.28648 -77.36060 33100 ft 508 kts 107°
2026-04-19 23:27 25.27494 -77.32488 33102 ft 488 kts 107°
2026-04-19 23:27 25.26369 -77.29032 33098 ft 470 kts 107°
2026-04-19 23:28 25.25261 -77.25653 33099 ft 454 kts 108°
2026-04-19 23:28 25.24211 -77.22472 33108 ft 439 kts 107°
2026-04-19 23:28 25.23164 -77.19321 33098 ft 425 kts 107°
2026-04-19 23:28 25.22150 -77.16303 33080 ft 415 kts 109°
2026-04-19 23:29 25.19374 -77.10584 33099 ft 436 kts 125°
2026-04-19 23:29 25.17423 -77.07919 32788 ft 450 kts 133°
2026-04-19 23:29 25.15141 -77.05548 32349 ft 449 kts 142°
2026-04-19 23:30 25.12587 -77.03562 31891 ft 447 kts 150°
2026-04-19 23:30 25.09816 -77.02004 31442 ft 444 kts 159°
2026-04-19 23:30 25.06895 -77.00899 30996 ft 442 kts 168°
2026-04-19 23:30 25.03852 -77.00249 30540 ft 439 kts 176°
2026-04-19 23:31 25.00815 -77.00063 30087 ft 436 kts 184°
2026-04-19 23:31 24.97788 -77.00138 29633 ft 435 kts 185°
2026-04-19 23:31 24.94764 -77.00226 29180 ft 436 kts 185°
2026-04-19 23:31 24.91697 -77.00313 28735 ft 435 kts 185°
2026-04-19 23:32 24.88662 -77.00398 28288 ft 436 kts 185°
2026-04-19 23:32 24.85600 -77.00485 27829 ft 436 kts 184°
2026-04-19 23:32 24.82580 -77.00569 27379 ft 436 kts 184°
2026-04-19 23:32 24.79510 -77.00655 26926 ft 436 kts 184°
2026-04-19 23:33 24.76458 -77.00740 26474 ft 436 kts 184°
2026-04-19 23:33 24.73435 -77.00825 26027 ft 436 kts 184°
2026-04-19 23:33 24.70379 -77.01135 25569 ft 432 kts 193°
2026-04-19 23:33 24.67499 -77.01955 25130 ft 428 kts 202°
2026-04-19 23:34 24.64765 -77.03286 24675 ft 424 kts 212°
2026-04-19 23:34 24.62303 -77.05060 24211 ft 419 kts 221°
2026-04-19 23:34 24.60166 -77.07210 23760 ft 416 kts 230°
2026-04-19 23:34 24.58392 -77.09666 23314 ft 413 kts 239°
2026-04-19 23:35 24.56978 -77.12428 22869 ft 410 kts 248°
2026-04-19 23:35 24.55993 -77.15356 22412 ft 408 kts 256°
2026-04-19 23:35 24.55325 -77.18391 21944 ft 407 kts 262°
2026-04-19 23:35 24.55065 -77.21457 21499 ft 407 kts 271°
2026-04-19 23:36 24.55280 -77.24586 21036 ft 407 kts 281°
2026-04-19 23:36 24.55956 -77.27581 20581 ft 407 kts 290°
2026-04-19 23:36 24.57077 -77.30420 20123 ft 407 kts 299°
2026-04-19 23:36 24.58619 -77.33034 19681 ft 408 kts 308°
2026-04-19 23:37 24.60547 -77.35353 19225 ft 409 kts 317°
2026-04-19 23:37 24.62772 -77.37282 18778 ft 410 kts 327°
2026-04-19 23:37 24.65262 -77.38902 18312 ft 412 kts 331°
2026-04-19 23:37 24.67755 -77.40438 17855 ft 414 kts 331°
2026-04-19 23:38 24.70279 -77.41991 17417 ft 415 kts 332°
2026-04-19 23:38 24.73008 -77.43120 16967 ft 416 kts 347°
2026-04-19 23:38 24.75869 -77.43578 16514 ft 417 kts 356°
2026-04-19 23:38 24.78797 -77.43506 16069 ft 419 kts
2026-04-19 23:39 24.81664 -77.42896 15587 ft 421 kts 15°
2026-04-19 23:39 24.84408 -77.41756 15185 ft 423 kts 25°
2026-04-19 23:39 24.86963 -77.40109 14743 ft 426 kts 34°
2026-04-19 23:39 24.89238 -77.37994 14290 ft 429 kts 44°
2026-04-19 23:40 24.91155 -77.35475 13838 ft 430 kts 54°
2026-04-19 23:40 24.92654 -77.32608 13382 ft 431 kts 64°
2026-04-19 23:40 24.93671 -77.29512 12933 ft 429 kts 74°
2026-04-19 23:40 24.94174 -77.26345 12477 ft 407 kts 84°
2026-04-19 23:41 24.94184 -77.23339 12034 ft 390 kts 93°
2026-04-19 23:41 24.93770 -77.20448 11570 ft 374 kts 102°
2026-04-19 23:41 24.92988 -77.17737 11128 ft 362 kts 111°
2026-04-19 23:41 24.91906 -77.15275 10670 ft 352 kts 119°
2026-04-19 23:42 24.90579 -77.13075 10223 ft 343 kts 127°
2026-04-19 23:42 24.89031 -77.11109 9775 ft 334 kts 134°
2026-04-19 23:42 24.87323 -77.09407 9321 ft 327 kts 141°
2026-04-19 23:42 24.85507 -77.07967 8881 ft 320 kts 147°
2026-04-19 23:43 24.83581 -77.06721 8428 ft 314 kts 150°
2026-04-19 23:43 24.81705 -77.05562 7986 ft 309 kts 150°
2026-04-19 23:43 24.79844 -77.04410 7543 ft 304 kts 150°
2026-04-19 23:43 24.78004 -77.03270 7088 ft 299 kts 150°
2026-04-19 23:44 24.76212 -77.02160 6848 ft 287 kts 150°
2026-04-19 23:44 24.74502 -77.01099 6683 ft 279 kts 149°
2026-04-19 23:44 24.72698 -77.00264 6512 ft 281 kts 169°
2026-04-19 23:44 24.70756 -77.00336 6333 ft 281 kts 195°
2026-04-19 23:45 24.69032 -77.01352 6164 ft 281 kts 222°
2026-04-19 23:45 24.67895 -77.03089 5984 ft 279 kts 245°
2026-04-19 23:45 24.66947 -77.04921 5958 ft 278 kts 229°
2026-04-19 23:45 24.65338 -77.06108 5993 ft 281 kts 199°
2026-04-19 23:46 24.63392 -77.06378 5790 ft 284 kts 172°
2026-04-19 23:46 24.61597 -77.05594 5566 ft 273 kts 141°
2026-04-19 23:46 24.60389 -77.04009 5192 ft 272 kts 118°
2026-04-19 23:46 24.59487 -77.02171 4818 ft 269 kts 117°
2026-04-19 23:47 24.58598 -77.00371 4465 ft 267 kts 117°
2026-04-19 23:47 24.57713 -76.98582 4107 ft 265 kts 118°
2026-04-19 23:47 24.56833 -76.96802 3755 ft 264 kts 117°
2026-04-19 23:47 24.55962 -76.95040 3405 ft 262 kts 117°
2026-04-19 23:48 24.55087 -76.93272 3058 ft 261 kts 117°
2026-04-19 23:48 24.54223 -76.91524 2713 ft 257 kts 117°
2026-04-19 23:48 24.53419 -76.89790 2367 ft 251 kts 110°
2026-04-19 23:48 24.53049 -76.87955 1952 ft 246 kts 93°
2026-04-19 23:49 24.53332 -76.86193 1546 ft 221 kts 67°
2026-04-19 23:49 24.54180 -76.84947 1201 ft 192 kts 43°
2026-04-19 23:49 24.55200 -76.84206 1110 ft 159 kts 30°
2026-04-19 23:49 24.56136 -76.83648 777 ft 143 kts 29°
2026-04-19 23:50 24.57010 -76.83277 478 ft 126 kts 24°
2026-04-19 23:50 24.57781 -76.82842 311 ft 127 kts 30°
2026-04-19 23:50 24.58545 -76.82452 146 ft 115 kts 29°
2026-04-19 23:50 24.59264 -76.82082 33 ft 114 kts 28°
2026-04-19 23:51 24.59835 -76.81785 18 ft 33 kts 25°
2026-04-19 23:51 24.60004 -76.81693 16 ft 8 kts 335°
2026-04-19 23:51 24.59952 -76.81733 17 ft 14 kts 199°
2026-04-19 23:51 24.59839 -76.81783 18 ft 19 kts 202°
2026-04-19 23:52 24.59708 -76.81850 20 ft 22 kts 203°
2026-04-19 23:52 24.59555 -76.81929 20 ft 25 kts 206°
2026-04-19 23:52 24.59384 -76.82020 20 ft 28 kts 204°
2026-04-19 23:52 24.59231 -76.82096 20 ft 19 kts 205°
2026-04-19 23:53 24.59151 -76.82114 20 ft 9 kts 138°
2026-04-19 23:53 24.59142 -76.82094 20 ft 4 kts 96°
2026-04-19 23:53 24.59159 -76.82057 20 ft 6 kts 41°
2026-04-19 23:53 24.59164 -76.82044 21 ft 0 kts 108°